| time (UTC) | temp C | wind direction | speed KPH | gust KPH | rain 1hr cm | rain 24hr cm | rain mn cm | humidity % | barometer mb |
| 20260505014510 | 8 | 126 | 0.0 | 8.0 | 0.15 | 0.18 | 0.15 | 78 | 1003.6 |
| 20260505013009 | 8 | 44 | 6.4 | 16.1 | 0.03 | 0.05 | 0.03 | 80 | 1004.9 |
| 20260505011507 | 8 | 350 | 6.4 | 17.7 | 0.03 | 0.05 | 0.03 | 80 | 1004.8 |
| 20260505010014 | 9 | 14 | 8.0 | 20.9 | 0.03 | 0.05 | 0.03 | 80 | 1004.4 |
| 20260505004507 | 11 | 323 | 11.3 | 19.3 | 0.00 | 0.03 | 0.00 | 76 | 1004.3 |
| 20260505003006 | 12 | 302 | 3.2 | 16.1 | 0.00 | 0.03 | 0.00 | 68 | 1003.7 |
| 20260505001508 | 13 | 35 | 0.0 | 9.7 | 0.00 | 0.03 | 0.00 | 61 | 1003.0 |
| 20260505000005 | 13 | 38 | 3.2 | 16.1 | 0.00 | 0.03 | 0.00 | 62 | 1002.7 |
| 20260504234506 | 13 | 350 | 8.0 | 22.5 | 0.00 | 0.03 | 0.00 | 63 | 1002.8 |
| 20260504233004 | 15 | 178 | 0.0 | 4.8 | 0.00 | 0.03 | 0.00 | 56 | 1002.8 |
| 20260504231504 | 15 | 146 | 1.6 | 11.3 | 0.00 | 0.03 | 0.00 | 57 | 1002.4 |
| 20260504230002 | 15 | 154 | 6.4 | 19.3 | 0.00 | 0.03 | 0.00 | 57 | 1002.8 |
| 20260504224600 | 15 | 161 | 4.8 | 17.7 | 0.00 | 0.03 | 0.00 | 56 | 1003.1 |
| 20260504223058 | 15 | 338 | 3.2 | 9.7 | 0.00 | 0.03 | 0.00 | 58 | 1003.0 |
| 20260504221558 | 15 | 338 | 4.8 | 11.3 | 0.00 | 0.03 | 0.00 | 60 | 1003.1 |
| 20260504220053 | 14 | 350 | 0.0 | 12.9 | 0.00 | 0.03 | 0.00 | 64 | 1003.0 |
| 20260504214550 | 13 | 34 | 1.6 | 8.0 | 0.00 | 0.03 | 0.00 | 69 | 1003.1 |
| 20260504213050 | 13 | 28 | 8.0 | 14.5 | 0.00 | 0.03 | 0.00 | 70 | 1003.7 |
| 20260504211547 | 13 | 30 | 0.0 | 4.8 | 0.00 | 0.03 | 0.00 | 75 | 1003.9 |
| 20260504210043 | 12 | 20 | 0.0 | 6.4 | 0.00 | 0.03 | 0.00 | 76 | 1003.8 |
| 20260504204539 | 11 | 15 | 1.6 | 12.9 | 0.00 | 0.03 | 0.00 | 78 | 1003.9 |
| 20260504203044 | 11 | 339 | 8.0 | 17.7 | 0.00 | 0.03 | 0.00 | 80 | 1003.8 |
| 20260504201537 | 11 | 9 | 3.2 | 12.9 | 0.00 | 0.03 | 0.00 | 72 | 1004.6 |
| 20260504200035 | 11 | 342 | 1.6 | 9.7 | 0.00 | 0.03 | 0.00 | 76 | 1003.7 |
| 20260504194535 | 11 | 343 | 3.2 | 9.7 | 0.00 | 0.03 | 0.00 | 78 | 1004.1 |
| 20260504193035 | 11 | 344 | 4.8 | 11.3 | 0.00 | 0.03 | 0.00 | 79 | 1004.1 |
| 20260504191534 | 11 | 349 | 4.8 | 11.3 | 0.00 | 0.03 | 0.00 | 79 | 1004.4 |
| 20260504190034 | 11 | 321 | 1.6 | 11.3 | 0.00 | 0.03 | 0.00 | 78 | 1004.2 |
| 20260504184532 | 11 | 318 | 4.8 | 14.5 | 0.00 | 0.03 | 0.00 | 78 | 1004.2 |
| 20260504183032 | 11 | 130 | 0.0 | 8.0 | 0.00 | 0.03 | 0.00 | 75 | 1004.1 |
| 20260504181531 | 11 | 130 | 0.0 | 6.4 | 0.00 | 0.03 | 0.00 | 75 | 1004.0 |
| 20260504180030 | 11 | 130 | 0.0 | 6.4 | 0.00 | 0.03 | 0.00 | 78 | 1004.1 |
| 20260504174529 | 10 | 130 | 0.0 | 1.6 | 0.00 | 0.03 | 0.00 | 81 | 1004.1 |
| 20260504173029 | 10 | 130 | 0.0 | 1.6 | 0.00 | 0.03 | 0.00 | 80 | 1004.4 |
| 20260504171542 | 10 | 130 | 0.0 | 6.4 | 0.00 | 0.03 | 0.00 | 80 | 1004.2 |
| 20260504081534 | 8 | 360 | 0.0 | 8.0 | 0.00 | 0.03 | 0.00 | 68 | 1004.3 |
| 20260504050012 | 9 | 138 | 0.0 | 3.2 | 0.00 | 0.03 | 0.03 | 71 | 1004.6 |
| 20260504044519 | 10 | 138 | 0.0 | 0.0 | 0.00 | 0.03 | 0.03 | 70 | 1004.7 |
| 20260504043012 | 10 | 274 | 0.0 | 0.0 | 0.00 | 0.03 | 0.03 | 66 | 1004.7 |
| 20260504041513 | 10 | 360 | 0.0 | 4.8 | 0.00 | 0.03 | 0.03 | 65 | 1004.5 |
| 20260504040013 | 11 | 360 | 0.0 | 0.0 | 0.00 | 0.03 | 0.03 | 64 | 1004.2 |
| 20260504034509 | 11 | 360 | 0.0 | 6.4 | 0.03 | 0.03 | 0.03 | 63 | 1003.8 |
| 20260504033012 | 11 | 360 | 0.0 | 0.0 | 0.03 | 0.03 | 0.03 | 63 | 1003.6 |
| 20260504031508 | 11 | 360 | 0.0 | 9.7 | 0.03 | 0.03 | 0.03 | 62 | 1003.6 |
| 20260504030013 | 12 | 360 | 0.0 | 12.9 | 0.03 | 0.03 | 0.03 | 61 | 1003.6 |
| 20260504024507 | 12 | 360 | 0.0 | 6.4 | 0.00 | 0.00 | 0.00 | 59 | 1003.5 |
| 20260504023008 | 12 | 360 | 0.0 | 14.5 | 0.00 | 0.00 | 0.00 | 62 | 1003.6 |
| 20260504021508 | 12 | 178 | 4.8 | 12.9 | 0.00 | 0.00 | 0.00 | 57 | 1004.5 |
| 20260504020006 | 12 | 178 | 8.0 | 11.3 | 0.00 | 0.00 | 0.00 | 59 | 1004.6 |